Deming, NM

5:44 PM MDT on April 26, 2017 (GMT -0600)
Deming Municipal

Weather History for KDMN - March, 2012

Change the Weather History Date:

Tuesday, March 27, 2012

  Actual Average Record
Temperature  
Mean Temperature 61 °F 54 °F  
Max Temperature 79 °F 71 °F 86 °F (1971)
Min Temperature 42 °F 37 °F 21 °F (1955)
Degree Days  
Heating Degree Days 4    
Growing Degree Days 11 (Base 50)    
Moisture  
Dew Point 17 °F    
Average Humidity 25    
Maximum Humidity 43    
Minimum Humidity 7    
Precipitation  
Precipitation 0.00 in 0.01 in 0.23 in (1989)
Month to date precipitation 0.04 0.37  
Year to date precipitation 0.64 1.57  
Sea Level Pressure  
Sea Level Pressure 29.91 in    
Wind  
Wind Speed 8 mph (West)    
Max Wind Speed 16 mph    
Max Gust Speed 25 mph    
Visibility 10 miles    
Events      
T = Trace of Precipitation, MM = Missing Value Source: NWS Daily Summary

Daily Weather History Graph

Daily Weather History Graph

Search for Another Location

Airport or City:

Trip Planner

Search our weather history database for the weather conditions in past years. The results will help you decide how hot, cold, wet, or windy it might be!

Date:

Astronomy

Mar. 27, 2012 Rise Set
Actual Time 7:04 AM MDT 7:27 PM MDT
Civil Twilight 6:40 AM MDT 7:52 PM MDT
Nautical Twilight 6:11 AM MDT 8:21 PM MDT
Astronomical Twilight 5:42 AM MDT 8:50 PM MDT
Moon 9:54 AM MDT (3/27) No Moon Set
Length of Visible Light 13h 11m
Length of Day
12h 22m
Waxing Crescent, 22% of the Moon is Illuminated
Mar 27
Waxing Crescent
Mar 30
First Quarter
Apr 6
Full
Apr 13
Last Quarter
Apr 21
New

Hourly Weather History & Observations

Time (MDT) Temp. Windchill Dew Point Humidity Pressure Visibility Wind Dir Wind Speed Gust Speed Precip Events Conditions
12:53 AM 46.9 °F - 16.0 °F 29% 29.89 in 10.0 mi West 6.9 mph - N/A   Clear
1:53 AM 46.0 °F 41.4 °F 18.0 °F 33% 29.89 in 10.0 mi West 9.2 mph - N/A   Clear
2:53 AM 43.0 °F - 18.0 °F 37% 29.89 in 10.0 mi Calm Calm - N/A   Clear
3:53 AM 44.1 °F 40.1 °F 19.0 °F 37% 29.88 in 10.0 mi West 6.9 mph - N/A   Clear
4:53 AM 46.0 °F 41.4 °F 19.9 °F 35% 29.88 in 10.0 mi West 9.2 mph - N/A   Clear
5:53 AM 45.0 °F 40.6 °F 19.9 °F 37% 29.89 in 10.0 mi West 8.1 mph - N/A   Clear
6:53 AM 43.0 °F 37.2 °F 21.0 °F 42% 29.92 in 10.0 mi West 10.4 mph - N/A   Clear
7:53 AM 46.0 °F 42.5 °F 19.9 °F 35% 29.96 in 10.0 mi SW 6.9 mph - N/A   Clear
8:53 AM 54.0 °F - 21.0 °F 28% 29.98 in 10.0 mi WSW 9.2 mph - N/A   Clear
9:53 AM 62.1 °F - 19.9 °F 20% 29.99 in 10.0 mi WSW 5.8 mph - N/A   Clear
10:53 AM 66.9 °F - 21.9 °F 18% 29.98 in 10.0 mi Variable 3.5 mph - N/A   Clear
11:53 AM 72.0 °F - 21.9 °F 15% 29.97 in 10.0 mi WSW 11.5 mph - N/A   Clear
12:53 PM 73.9 °F - 21.0 °F 14% 29.95 in 10.0 mi West 9.2 mph 16.1 mph N/A   Clear
1:53 PM 75.9 °F - 14.0 °F 10% 29.92 in 10.0 mi WSW 10.4 mph 18.4 mph N/A   Clear
2:53 PM 75.9 °F - 9.0 °F 8% 29.90 in 10.0 mi Variable 4.6 mph - N/A   Clear
3:53 PM 79.0 °F - 10.0 °F 7% 29.87 in 10.0 mi West 11.5 mph 16.1 mph N/A   Clear
4:53 PM 78.1 °F - 10.0 °F 7% 29.85 in 10.0 mi WSW 12.7 mph 19.6 mph N/A   Clear
5:53 PM 77.0 °F - 16.0 °F 10% 29.85 in 10.0 mi West 10.4 mph - N/A   Clear
6:53 PM 75.0 °F - 17.1 °F 11% 29.86 in 10.0 mi West 11.5 mph - N/A   Clear
7:53 PM 66.9 °F - 17.1 °F 15% 29.87 in 10.0 mi WNW 5.8 mph - N/A   Clear
8:53 PM 62.1 °F - 16.0 °F 17% 29.88 in 10.0 mi NW 6.9 mph - N/A   Clear
9:53 PM 55.9 °F - 10.9 °F 17% 29.88 in 10.0 mi NW 9.2 mph - N/A   Clear
10:53 PM 52.0 °F - 12.0 °F 20% 29.89 in 10.0 mi WNW 3.5 mph - N/A   Clear
11:53 PM 48.9 °F - 12.0 °F 23% 29.89 in 10.0 mi Calm Calm - N/A   Clear